This is the latest recevied weather packets stored in our database for station/object K8FJG-13. If no packets are shown the sender has not sent any weather packets the latest 10 day(s).
| Time | Temp. | Humidity | Pressure | Rain* | Wind** | Luminosity | Snow |
|---|---|---|---|---|---|---|---|
| 1788139492 | 69° F | 97% | 731.9 mmHg | - | - | - | - |
| 1788138889 | 69° F | 97% | 732 mmHg | - | - | - | - |
| 1788138285 | 69° F | 96% | 732.1 mmHg | - | - | - | - |
| 1788137682 | 69° F | 96% | 732.2 mmHg | - | - | - | - |
| 1788137079 | 69° F | 96% | 732.3 mmHg | - | - | - | - |
| 1788136476 | 69° F | 95% | 732.1 mmHg | - | - | - | - |
| 1788135873 | 70° F | 95% | 732 mmHg | - | - | - | - |
| 1788135270 | 70° F | 95% | 731.8 mmHg | - | - | - | - |
| 1788134667 | 70° F | 94% | 731.7 mmHg | - | - | - | - |
| 1788134064 | 70° F | 94% | 731.7 mmHg | - | - | - | - |
| 1788133460 | 70° F | 93% | 731.7 mmHg | - | - | - | - |
| 1788132857 | 71° F | 92% | 731.5 mmHg | - | - | - | - |
| 1788132254 | 71° F | 92% | 731.4 mmHg | - | - | - | - |
| 1788131651 | 71° F | 91% | 731.3 mmHg | - | - | - | - |
| 1788131047 | 71° F | 91% | 731.4 mmHg | - | - | - | - |
| 1788130444 | 72° F | 89% | 731.2 mmHg | - | - | - | - |
| 1788129841 | 72° F | 89% | 731 mmHg | - | - | - | - |
| 1788129238 | 72° F | 89% | 730.9 mmHg | - | - | - | - |
| 1788128635 | 72° F | 88% | 731.1 mmHg | - | - | - | - |
| 1788128031 | 73° F | 87% | 731.1 mmHg | - | - | - | - |
| 1788127428 | 73° F | 83% | 730.9 mmHg | - | - | - | - |
| 1788126825 | 73° F | 82% | 730.8 mmHg | - | - | - | - |
| 1788126222 | 73° F | 80% | 730.8 mmHg | - | - | - | - |
| 1788125619 | 73° F | 81% | 730.9 mmHg | - | - | - | - |
| 1788125015 | 73° F | 84% | 730.9 mmHg | - | - | - | - |
* Rain since midnight (hover to see other rain measurements)
** Current wind speed in m/s (hover to see current wind gust speed)